EW0608 Weather Reports


time (UTC)temp
C
wind
direction
speed
KPH
gust
KPH
rain 1hr
cm
rain 24hr
cm
rain mn
cm
humidity
%
barometer
mb
20260903133040 22 70 0.0 0.0 0.00 0.00 0.00 91 1016.9
20260903131538 22 80 0.0 0.0 0.00 0.00 0.00 94 1017.2
20260903130036 21 80 0.0 0.0 0.00 0.00 0.00 95 1017.0
20260903124535 21 80 0.0 0.0 0.00 0.00 0.00 95 1017.1
20260903123038 21 80 0.0 0.0 0.00 0.00 0.00 95 1017.4
20260903121535 21 225 0.0 0.0 0.00 0.00 0.00 95 1017.4
20260903120036 21 224 0.0 0.0 0.00 0.00 0.00 95 1017.7
20260903114552 21 224 0.0 0.0 0.00 0.00 0.00 95 1017.9
20260903113031 21 74 0.0 0.0 0.00 0.00 0.00 95 1017.5
20260903111530 20 74 0.0 0.0 0.00 0.00 0.00 95 1017.4
20260903110028 20 74 0.0 3.2 0.00 0.00 0.00 95 1017.1
20260903104626 20 68 0.0 1.6 0.00 0.00 0.00 94 1016.7
20260903103025 20 63 0.0 0.0 0.00 0.00 0.00 95 1016.3
20260903101520 20 5 0.0 0.0 0.00 0.00 0.00 94 1016.0
20260903100029 20 5 0.0 0.0 0.00 0.00 0.00 94 1015.6
20260903094516 20 5 0.0 0.0 0.00 0.00 0.00 94 1015.2
20260903093036 20 5 0.0 0.0 0.00 0.00 0.00 94 1014.9
20260903091514 20 5 0.0 0.0 0.00 0.00 0.00 94 1014.9
20260903090014 20 5 0.0 0.0 0.00 0.00 0.00 94 1015.0
20260903084526 20 5 0.0 0.0 0.00 0.00 0.00 94 1015.0
20260903083012 20 5 0.0 0.0 0.00 0.00 0.00 94 1014.9
20260903081515 20 5 0.0 0.0 0.00 0.00 0.00 94 1014.7
20260903080009 20 5 0.0 0.0 0.00 0.00 0.00 94 1014.7
20260903074509 20 5 0.0 0.0 0.00 0.00 0.00 94 1014.8
20260903073009 20 5 0.0 0.0 0.00 0.00 0.00 94 1014.7
20260903071514 20 5 0.0 0.0 0.00 0.00 0.00 94 1014.8
20260903070006 20 5 0.0 0.0 0.00 0.00 0.00 94 1014.8
20260903064506 20 5 0.0 0.0 0.00 0.00 0.00 94 1014.8
20260903063005 21 5 0.0 0.0 0.00 0.00 0.00 94 1014.7
20260903061503 21 5 0.0 0.0 0.00 0.00 0.00 94 1014.6
20260903060001 21 5 0.0 0.0 0.00 0.00 0.00 93 1014.8
20260903054559 21 5 0.0 0.0 0.00 0.00 0.00 94 1014.7
20260903053101 21 5 0.0 0.0 0.00 0.00 0.00 93 1014.7
20260903051601 21 5 0.0 0.0 0.00 0.00 0.00 93 1014.8
20260903051349 21 5 0.0 0.0 0.00 0.00 0.00 93 1016.3
20260903050841 21 5 0.0 0.0 0.00 0.00 0.00 93 1016.2
20260903050356 21 5 0.0 0.0 0.00 0.00 0.00 93 1016.2
20260903050004 21 5 0.0 0.0 0.00 0.00 0.00 93 1014.8
20260903045903 22 5 0.0 0.0 0.00 0.00 0.00 93 1016.2
20260903045415 22 5 0.0 0.0 0.00 0.00 0.00 93 1016.2
20260903044848 22 5 0.0 0.0 0.00 0.00 0.00 93 1016.3
20260903044539 21 5 0.0 0.0 0.00 0.00 0.00 93 1015.0
20260903044439 22 5 0.0 0.0 0.00 0.00 0.00 93 1016.3
20260903043847 22 5 0.0 0.0 0.00 0.00 0.00 93 1016.4
20260903043359 22 5 0.0 0.0 0.00 0.00 0.00 93 1016.3
20260903043015 21 5 0.0 0.0 0.00 0.00 0.00 93 1014.9
20260903042911 22 5 0.0 0.0 0.00 0.00 0.00 93 1016.4
20260903042342 22 5 0.0 0.0 0.00 0.00 0.00 93 1016.3
20260903041855 22 5 0.0 0.0 0.00 0.00 0.00 93 1016.4
20260903041548 22 5 0.0 0.0 0.00 0.00 0.00 93 1015.1
20260903041347 22 5 0.0 0.0 0.00 0.00 0.00 93 1016.4
20260903040841 22 5 0.0 0.0 0.00 0.00 0.00 93 1016.4
20260903040354 22 5 0.0 0.0 0.00 0.00 0.00 92 1016.5
20260903040008 22 5 0.0 0.0 0.00 0.00 0.00 92 1015.2
20260903035904 22 5 0.0 0.0 0.00 0.00 0.00 92 1016.6
20260903035356 22 5 0.0 0.0 0.00 0.00 0.00 92 1016.6
20260903034908 22 5 0.0 0.0 0.00 0.00 0.00 92 1016.6
20260903034540 22 5 0.0 0.0 0.00 0.00 0.00 92 1015.3
20260903034340 22 5 0.0 0.0 0.00 0.00 0.00 92 1016.5
20260903033854 22 5 0.0 0.0 0.00 0.00 0.00 92 1016.4
20260903033346 22 5 0.0 0.0 0.00 0.00 0.00 92 1016.4
20260903033042 22 5 0.0 0.0 0.00 0.00 0.00 92 1015.1
20260903032840 22 5 0.0 0.0 0.00 0.00 0.00 92 1016.4
20260903032412 22 5 0.0 0.0 0.00 0.00 0.00 92 1016.4
20260903031842 22 5 0.0 0.0 0.00 0.00 0.00 92 1016.4
20260903031537 22 5 0.0 0.0 0.00 0.00 0.00 92 1015.0
20260903031335 22 5 0.0 0.0 0.00 0.00 0.00 92 1016.4
20260903030849 22 5 0.0 0.0 0.00 0.00 0.00 92 1016.4
20260903030342 22 5 0.0 0.0 0.00 0.00 0.00 92 1016.5
20260903030053 22 5 0.0 0.0 0.00 0.00 0.00 91 1015.2
20260903025852 23 5 0.0 0.0 0.00 0.00 0.00 91 1016.5
20260903025345 23 5 0.0 0.0 0.00 0.00 0.00 91 1016.4
20260903024841 23 5 0.0 0.0 0.00 0.00 0.00 91 1016.5
20260903024554 22 5 0.0 0.0 0.00 0.00 0.00 91 1015.1
20260903024354 23 5 0.0 0.0 0.00 0.00 0.00 91 1016.4
20260903023846 23 5 0.0 0.0 0.00 0.00 0.00 91 1016.4
20260903023339 23 5 0.0 0.0 0.00 0.00 0.00 91 1016.4
20260903023051 23 5 0.0 0.0 0.00 0.00 0.00 91 1015.1
20260903022851 23 5 0.0 0.0 0.00 0.00 0.00 91 1016.4
20260903021854 23 5 0.0 0.0 0.00 0.00 0.00 90 1016.3
20260903021548 23 5 0.0 0.0 0.00 0.00 0.00 90 1015.1
20260903021348 23 5 0.0 0.0 0.00 0.00 0.00 90 1016.4
20260903020356 23 5 0.0 0.0 0.00 0.00 0.00 90 1016.3
20260903020048 23 5 0.0 0.0 0.00 0.00 0.00 90 1015.0
20260903015845 23 5 0.0 0.0 0.00 0.00 0.00 90 1016.3
20260903015337 23 5 0.0 0.0 0.00 0.00 0.00 90 1016.2
20260903014910 23 5 0.0 0.0 0.00 0.00 0.00 89 1016.2
20260903014554 23 5 0.0 0.0 0.00 0.00 0.00 89 1014.9
20260903014341 23 5 0.0 0.0 0.00 0.00 0.00 89 1016.3
20260903013854 23 5 0.0 0.0 0.00 0.00 0.00 89 1016.5
20260903013348 24 5 0.0 0.0 0.00 0.00 0.00 89 1016.5
20260903013042 23 5 0.0 0.0 0.00 0.00 0.00 88 1015.2
20260903012841 24 5 0.0 0.0 0.00 0.00 0.00 88 1016.5
20260903012354 24 5 0.0 0.0 0.00 0.00 0.00 88 1016.5
20260903011847 24 5 0.0 0.0 0.00 0.00 0.00 88 1016.5
20260903011541 24 5 0.0 0.0 0.00 0.00 0.00 88 1015.1
20260903011341 24 5 0.0 0.0 0.00 0.00 0.00 88 1016.6
20260903010854 24 5 526.3 526.3 0.00 0.00 0.00 88 1016.2
20260903010349 24 5 0.0 0.0 0.00 0.00 0.00 88 1016.4
20260903010040 24 5 0.0 0.0 0.00 0.00 0.00 88 1015.1
20260903005939 24 5 0.0 0.0 0.00 0.00 0.00 88 1016.5
20260903005406 24 5 0.0 0.0 0.00 0.00 0.00 88 1016.5
20260903004550 24 5 0.0 0.0 0.00 0.00 0.00 89 1015.2
20260903004349 25 5 0.0 0.0 0.00 0.00 0.00 88 1016.5
20260903003839 25 5 0.0 0.0 0.00 0.00 0.00 88 1016.7
20260903003352 25 5 0.0 0.0 0.00 0.00 0.00 88 1016.7
20260903003049 24 5 0.0 0.0 0.00 0.00 0.00 88 1015.3
20260903002359 25 5 0.0 1.6 0.00 0.00 0.00 88 1016.7
20260903001851 25 5 0.0 3.2 0.00 0.00 0.00 88 1016.7
20260903001545 24 5 0.0 3.2 0.00 0.00 0.00 88 1015.3
20260903001343 25 5 1.6 3.2 0.00 0.00 0.00 88 1016.7
20260903000836 25 5 0.0 3.2 0.00 0.00 0.00 88 1016.7
20260903000349 25 5 1.6 3.2 0.00 0.00 0.00 88 1016.7
20260903000038 25 5 0.0 1.6 0.00 0.00 0.00 88 1015.4
20260902235838 25 5 0.0 0.0 0.00 0.00 0.00 88 1016.8
20260902235350 25 5 0.0 0.0 0.00 0.00 0.00 87 1016.8
20260902234843 25 5 0.0 0.0 0.00 0.00 0.00 87 1017.0
20260902234538 25 5 0.0 0.0 0.00 0.00 0.00 87 1015.6
20260902234337 25 5 0.0 0.0 0.00 0.00 0.00 87 1017.0
20260902233851 25 5 0.0 0.0 0.00 0.00 0.00 87 1016.8
20260902233343 26 5 0.0 1.6 0.00 0.00 0.00 86 1016.7
20260902233034 25 5 0.0 3.2 0.00 0.00 0.00 85 1015.3
20260902232341 26 5 1.6 3.2 0.00 0.00 0.00 85 1016.8
20260902231854 26 263 0.0 0.0 0.00 0.00 0.00 86 1016.7
20260902231511 26 263 0.0 0.0 0.00 0.00 0.00 85 1015.2
20260902231407 26 263 0.0 0.0 0.00 0.00 0.00 85 1016.6
20260902230837 26 263 0.0 3.2 0.00 0.00 0.00 85 1016.7
20260902230350 26 263 0.0 3.2 0.00 0.00 0.00 83 1016.6
20260902230042 26 263 0.0 3.2 0.00 0.00 0.00 85 1015.2
20260902225840 26 263 0.0 3.2 0.00 0.00 0.00 85 1016.6
20260902225352 26 263 0.0 1.6 0.00 0.00 0.00 85 1016.8
20260902224843 26 263 0.0 4.8 0.00 0.00 0.00 84 1016.7
20260902224557 26 263 0.0 4.8 0.00 0.00 0.00 84 1015.2
20260902224355 26 263 1.6 4.8 0.00 0.00 0.00 85 1016.6
20260902223848 27 55 0.0 0.0 0.00 0.00 0.00 84 1016.6
20260902223345 27 55 0.0 0.0 0.00 0.00 0.00 82 1016.5
20260902223115 27 55 0.0 0.0 0.00 0.00 0.00 83 1015.1
20260902222858 27 55 0.0 0.0 0.00 0.00 0.00 83 1016.5
20260902222350 27 55 0.0 0.0 0.00 0.00 0.00 81 1016.4
20260902221843 27 55 0.0 0.0 0.00 0.00 0.00 82 1016.3
20260902221558 27 55 0.0 0.0 0.00 0.00 0.00 84 1015.0
20260902221356 27 55 0.0 1.6 0.00 0.00 0.00 83 1016.4
20260902220847 27 55 0.0 1.6 0.00 0.00 0.00 81 1016.3
20260902220342 27 55 0.0 3.2 0.00 0.00 0.00 81 1016.2
20260902220012 27 55 0.0 3.2 0.00 0.00 0.00 80 1014.7
20260902215851 27 55 0.0 4.8 0.00 0.00 0.00 81 1016.2
20260902215342 28 55 1.6 4.8 0.00 0.00 0.00 80 1016.2
20260902214955 27 58 0.0 1.6 0.00 0.00 0.00 80 1016.2
20260902214544 27 260 0.0 0.0 0.00 0.00 0.00 80 1014.8
20260902214342 27 260 0.0 0.0 0.00 0.00 0.00 81 1016.2
20260902213855 28 57 0.0 4.8 0.00 0.00 0.00 79 1016.4
20260902213347 28 57 1.6 4.8 0.00 0.00 0.00 78 1016.4
20260902213041 27 66 0.0 0.0 0.00 0.00 0.00 80 1015.1
20260902212841 28 66 0.0 3.2 0.00 0.00 0.00 79 1016.5
20260902212353 28 93 0.0 6.4 0.00 0.00 0.00 79 1016.4
20260902211847 28 245 1.6 6.4 0.00 0.00 0.00 79 1016.5
20260902211540 27 73 0.0 6.4 0.00 0.00 0.00 80 1015.2
20260902211339 28 73 0.0 6.4 0.00 0.00 0.00 81 1016.6
20260902210853 27 37 3.2 4.8 0.00 0.00 0.00 82 1016.7
20260902210346 28 238 0.0 6.4 0.00 0.00 0.00 80 1016.8
20260902205856 27 238 1.6 0.0 0.00 0.00 0.00 79 1016.3
20260902205346 27 30 0.0 6.4 0.00 0.00 0.00 79 1016.8
20260902204839 27 30 3.2 6.4 0.00 0.00 0.00 79 1017.0
20260902204554 27 40 1.6 4.8 0.00 0.00 0.00 79 1015.6
20260902204352 27 53 1.6 4.8 0.00 0.00 0.00 80 1017.0
20260902203842 28 22 1.6 6.4 0.00 0.00 0.00 81 1016.9
20260902203355 27 288 3.2 6.4 0.00 0.00 0.00 79 1016.8
20260902203050 27 231 0.0 6.4 0.00 0.00 0.00 78 1015.4
20260902202848 27 94 1.6 6.4 0.00 0.00 0.00 78 1016.9
20260902202343 28 291 3.2 6.4 0.00 0.00 0.00 80 1017.0
20260902201835 27 5 1.6 4.8 0.00 0.00 0.00 80 1016.9
20260902201509 27 271 0.0 4.8 0.00 0.00 0.00 79 1015.4
20260902201410 28 311 1.6 4.8 0.00 0.00 0.00 79 1016.8
20260902200841 28 347 1.6 9.7 0.00 0.00 0.00 80 1017.0
20260902200339 28 252 3.2 9.7 0.00 0.00 0.00 78 1017.2
20260902200051 27 221 1.6 6.4 0.00 0.00 0.00 79 1015.7
20260902195848 28 288 1.6 6.4 0.00 0.00 0.00 79 1017.2
20260902195341 28 23 3.2 6.4 0.00 0.00 0.00 77 1017.2
20260902194853 28 136 1.6 6.4 0.00 0.00 0.00 76 1017.0
20260902194547 28 9 0.0 4.8 0.00 0.00 0.00 75 1015.5
20260902194346 28 79 1.6 4.8 0.00 0.00 0.00 78 1016.9
20260902193836 28 225 526.3 526.3 0.00 0.00 0.00 78 1016.5
20260902193350 27 304 1.6 3.2 0.00 0.00 0.00 80 1016.9
20260902193044 27 59 0.0 3.2 0.00 0.00 0.00 81 1015.5
20260902192843 27 59 0.0 3.2 0.00 0.00 0.00 82 1016.9
20260902192356 27 59 1.6 4.8 0.00 0.00 0.00 80 1016.8
20260902191848 27 59 0.0 4.8 0.00 0.00 0.00 83 1016.9
20260902191542 27 59 0.0 6.4 0.00 0.00 0.00 81 1015.4
20260902191342 27 59 0.0 6.4 0.00 0.00 0.00 80 1016.9
20260902190914 27 350 1.6 6.4 0.00 0.00 0.00 82 1017.1
20260902190348 27 355 0.0 3.2 0.00 0.00 0.00 86 1017.3
20260902190023 26 355 0.0 3.2 0.00 0.00 0.00 87 1015.9
20260902185917 26 355 0.0 3.2 0.00 0.00 0.00 87 1017.4
20260902185349 26 320 0.0 8.0 0.00 0.00 0.00 88 1017.5
20260902184900 26 80 1.6 8.0 0.00 0.00 0.00 88 1017.6
20260902184613 25 13 1.6 8.0 0.00 0.00 0.00 88 1016.3
20260902184351 26 74 1.6 4.8 0.00 0.00 0.00 89 1017.9
20260902183845 25 314 0.0 4.8 0.00 0.00 0.00 89 1017.7
20260902183337 25 360 0.0 3.2 0.00 0.00 0.00 92 1017.6
20260902183102 25 360 0.0 3.2 0.00 0.00 0.00 91 1016.2
20260902182850 25 360 1.6 3.2 0.00 0.00 0.00 92 1017.6
20260902182341 25 360 0.0 1.6 0.00 0.00 0.00 92 1017.5
20260902181914 25 360 0.0 4.8 0.00 0.00 0.00 91 1017.6
20260902181546 25 360 0.0 4.8 0.00 0.00 0.00 92 1016.0
20260902181345 25 360 1.6 4.8 0.00 0.00 0.00 91 1017.5
20260902180838 25 46 3.2 4.8 0.00 0.00 0.00 91 1017.7
20260902180349 25 215 3.2 4.8 0.00 0.00 0.00 89 1018.0
20260902180043 25 338 1.6 9.7 0.00 0.00 0.00 87 1016.7
20260902175839 26 338 3.2 11.3 0.00 0.00 0.00 87 1018.1
20260902175411 27 339 4.8 11.3 0.00 0.00 0.00 81 1017.5
20260902174843 30 236 1.6 8.0 0.00 0.00 0.00 73 1017.3
20260902174515 31 15 1.6 8.0 0.00 0.00 0.00 72 1015.5
20260902174414 32 85 4.8 8.0 0.00 0.00 0.00 72 1017.0
20260902173846 32 129 1.6 6.4 0.00 0.00 0.00 66 1016.9
20260902173400 32 236 1.6 6.4 0.00 0.00 0.00 64 1016.9
20260902173051 31 225 3.2 6.4 0.00 0.00 0.00 65 1015.4
20260902172851 31 208 1.6 3.2 0.00 0.00 0.00 69 1017.0
20260902172405 31 208 0.0 3.2 0.00 0.00 0.00 67 1017.2
20260902171855 31 208 0.0 3.2 0.00 0.00 0.00 72 1017.3
20260902171549 31 208 0.0 1.6 0.00 0.00 0.00 69 1016.0
20260902171349 31 208 0.0 3.2 0.00 0.00 0.00 71 1017.4
20260902170840 31 208 0.0 6.4 0.00 0.00 0.00 66 1017.5
20260902170340 31 215 1.6 6.4 0.00 0.00 0.00 62 1017.6
20260902170052 31 223 0.0 4.8 0.00 0.00 0.00 64 1016.1
20260902165848 31 161 1.6 4.8 0.00 0.00 0.00 63 1017.6
20260902165341 32 111 1.6 4.8 0.00 0.00 0.00 64 1017.6
20260902164914 32 84 1.6 8.0 0.00 0.00 0.00 62 1017.7
20260902164509 32 232 1.6 8.0 0.00 0.00 0.00 59 1016.4
20260902164406 32 210 3.2 8.0 0.00 0.00 0.00 61 1017.9
20260902163837 32 237 1.6 6.4 0.00 0.00 0.00 62 1017.7
20260902163410 32 78 3.2 4.8 0.00 0.00 0.00 64 1017.8
20260902163001 32 202 1.6 6.4 0.00 0.00 0.00 63 1016.4
20260902162900 32 206 3.2 6.4 0.00 0.00 0.00 62 1018.0
20260902162352 32 194 1.6 4.8 0.00 0.00 0.00 62 1018.0
20260902161845 32 194 1.6 4.8 0.00 0.00 0.00 63 1018.0
20260902161538 31 185 1.6 4.8 0.00 0.00 0.00 63 1016.6
20260902161337 32 240 1.6 4.8 0.00 0.00 0.00 65 1018.1
20260902160850 31 118 1.6 4.8 0.00 0.00 0.00 67 1018.1
20260902160343 31 49 3.2 8.0 0.00 0.00 0.00 67 1018.2
20260902160054 31 46 1.6 8.0 0.00 0.00 0.00 66 1016.7
20260902155853 31 214 1.6 8.0 0.00 0.00 0.00 66 1018.2
20260902155347 31 44 3.2 6.4 0.00 0.00 0.00 69 1018.0
20260902154838 30 355 3.2 8.0 0.00 0.00 0.00 73 1018.0
20260902154551 30 101 3.2 8.0 0.00 0.00 0.00 72 1016.5
20260902154350 30 214 1.6 0.0 0.00 0.00 0.00 74 1017.6
20260902153842 30 177 0.0 3.2 0.00 0.00 0.00 75 1018.0
20260902153354 29 175 0.0 0.0 0.00 0.00 0.00 82 1017.9
20260902153007 28 175 0.0 0.0 0.00 0.00 0.00 83 1016.5
20260902152907 29 175 0.0 0.0 0.00 0.00 0.00 82 1018.0
20260902152339 28 175 0.0 0.0 0.00 0.00 0.00 88 1018.0
20260902151851 27 175 0.0 0.0 0.00 0.00 0.00 89 1018.1
20260902151551 27 175 0.0 0.0 0.00 0.00 0.00 89 1016.7
20260902151344 27 175 0.0 0.0 0.00 0.00 0.00 89 1018.2
20260902150837 27 175 0.0 0.0 0.00 0.00 0.00 88 1018.1
20260902150430 27 175 0.0 0.0 0.00 0.00 0.00 87 1018.1
20260902150057 27 175 0.0 0.0 0.00 0.00 0.00 87 1016.7
20260902145855 27 175 0.0 0.0 0.00 0.00 0.00 88 1018.1
20260902145347 27 175 0.0 0.0 0.00 0.00 0.00 87 1018.0
20260902144840 27 175 0.0 0.0 0.00 0.00 0.00 87 1018.0
20260902144553 26 175 0.0 0.0 0.00 0.00 0.00 88 1016.6
20260902144353 26 175 0.0 0.0 0.00 0.00 0.00 88 1018.0
20260902143846 26 175 0.0 0.0 0.00 0.00 0.00 88 1018.0
20260902143338 26 175 0.0 0.0 0.00 0.00 0.00 88 1018.0
20260902143056 26 175 0.0 0.0 0.00 0.00 0.00 87 1016.5
20260902142851 26 175 0.0 0.0 0.00 0.00 0.00 88 1018.0
20260902142343 25 175 0.0 0.0 0.00 0.00 0.00 90 1018.0
20260902141842 25 175 0.0 0.0 0.00 0.00 0.00 91 1018.0
20260902141539 24 175 0.0 0.0 0.00 0.00 0.00 91 1016.7
20260902141336 25 175 0.0 0.0 0.00 0.00 0.00 92 1018.1
20260902140848 24 175 0.0 0.0 0.00 0.00 0.00 93 1018.2
20260902140342 23 175 0.0 0.0 0.00 0.00 0.00 94 1018.2
20260902140051 23 175 0.0 0.0 0.00 0.00 0.00 94 1016.7
20260902135850 23 175 0.0 0.0 0.00 0.00 0.00 94 1018.1
20260902135343 23 175 0.0 0.0 0.00 0.00 0.00 94 1018.2
20260902134836 23 175 0.0 0.0 0.00 0.00 0.00 94 1018.1
20260902134602 22 175 0.0 0.0 0.00 0.00 0.00 94 1016.7
20260902134348 23 175 0.0 0.0 0.00 0.00 0.00 94 1018.2
20260902133840 23 175 0.0 0.0 0.00 0.00 0.00 95 1018.3